STARLINK-32334, 62023

Orbit data source: Space-Track

STARLINK-32334, 62023 is a payload satellite owned by SpaceX/Seattle (US) in LEO that was launched on Mon, 18 Nov 2024 UTC via an FALCON 9 launch vehicle from the Air Force Western Test Range (AFWTR). Payload-class satellites include a variety of spacecraft equipped with specific instruments for various scientific and technological missions. These include communications satellites like Starlink; space stations such as the ISS; scientific satellites like the Hubble; Earth observation satellites from companies like Planet Labs, Umbra, and HawkEye 360; GPS; miniature CubeSats for education and research; and military/defense satellites.

Loading next visibility...
Identifier
62023, 2024-213R
Orbit
LEO
Country
Flag of USUS
Related business
Manufacturer
SpaceX/Seattle
Mission
Operational Commercial Communications
Bus & Motor
STARLINK V2M, Unknown motor
Mass
730 kg wet, ~700 kg dry
Launch date (UTC)
2024-11-18 (1 year ago)
Launch vehicle
FALCON 9
Launch site
Air Force Western Test Range (AFWTR)
Object type
Payload
Rocket body
Debris
Shape & HBR
Box + 2 Pan, 17.7 m
Radar Cross Section
33.884 m², Large (>1 m²)

Expand to show TLE details & history
Last TLE update: 8 hours ago

TLE from 8 hours ago
0 STARLINK-32334
1 62023U 24213R   26073.48847547  .00026802  00000-0  91280-3 0  9991
2 62023  53.1579 145.5388 0001093  58.8637 301.2471 15.30235352 73893
Epoch: 2026-03-14T11:43Z
TLE epoch observation values (Epoch: 2026-03-14T11:43:24.280Z)
Latitude
-0.00002°
Longitude
157.57869°
Altitude
475.621 km
Speed
7.629 km/s
True Right ascension
09h 42m 09s
True Declination
0° 00' 00"
Sunlit
Object was in full shadow at epoch
Visualization orbit readout
Latitude
Unknown
Longitude
Unknown
Altitude
Unknown
Speed
Unknown
Apparent Right ascension
Unknown
Apparent Declination
Unknown
Sunlit
N/A
Visualization observer readout
Local Sidereal Time
23:45:46
Azimuth
Unknown
Elevation
Unknown
Doppler factor
Unknown
Orbital elements
Apogee altitude
476.115 km
Perigee altitude
474.617 km
Semi-major axis
6,853.503 km
Eccentricity
0.00011
Inclination
53.1579°
RAAN
145.5388°
Arg. of periapsis
58.8637°
True anomaly
301.23639°
Mean anomaly
301.2471°
Eccentric anomaly
301.24175°
Mean motion
3.82538 °/min
Orbital period
94.11 mins
BSTAR
0.0009128
Loading maneuver chart data...
Computing Atmospheric mass density...
Loading historical data...
Loading historical data...
Loading historical data...
Loading historical data...
Loading historical data...
Loading historical data...
Loading historical data...

Documentation

Showing up to 5 results
|